Regional Weather Roundup
Issued by NWS

Home | Current Version | Previous Version | Text Only | Print | Product List | Glossary On
Versions: 1 2 3 4 5 6 7 8 9 10 11 12 13 14 15 16 17 18 19 20 21 22 23 24 25 26 27 28 29 30 31 32 33 34 35 36 37 38 39 40 41 42 43 44 45 46 47 48 49 50
000
ASUS45 KSLC 061510
RWRUT

UTAH REGIONAL WEATHER ROUNDUP
NATIONAL WEATHER SERVICE SALT LAKE CITY UT
900 AM MDT FRI MAY 06 2016

UTZ001>011-023>025-061600-

NORTHERN UTAH

CITY           SKY/WX    TMP DP  RH WIND       PRES   REMARKS
BRIGHAM CITY   CLOUDY    58  46  62 SE18G24   29.93R
HILL AFB       PTSUNNY   54  46  73 E18G35    29.87F
LOGAN          CLOUDY    58  45  62 S36G46    29.91R THUNDER
OGDEN          CLOUDY    59  43  55 E17G32    29.86F
PROVO AIRPORT  PTSUNNY   61  45  55 NW8       29.82F
SALT LAKE CITY CLOUDY    64  40  41 E18       29.82F
VERNAL         CLOUDY    56  47  71 CALM      29.98R
WENDOVER       CLOUDY    63  39  42 N20G28    29.78S
HEBER CITY     CLOUDY    52  45  76 CALM      29.94S

$$

UTZ012>022-026-027-061600-

SOUTHERN/CENTRAL UTAH

CITY           SKY/WX    TMP DP  RH WIND       PRES   REMARKS
BLANDING       MOSUNNY   61  32  33 SE3       30.04R
BRYCE CANYON   PTSUNNY   50  17  27 SE9       29.96F
CEDAR CITY     CLOUDY    55  27  34 SW13G20   29.85R
DELTA          CLOUDY    61  32  33 SE5       29.82S
HANKSVILLE     CLOUDY    68  34  28 SE5       29.86S
MILFORD        CLOUDY    59  33  37 S9        29.81S
MOAB/CYNLANDS  PTSUNNY   75  34  22 S5        29.83R
PRICE          PTSUNNY   61  45  55 W5        29.90R
ST GEORGE      CLOUDY    68  23  18 S13       29.79S

$$

REGIONAL REPORTS     COLORADO/ARIZONA

CITY           SKY/WX    TMP DP  RH WIND       PRES   REMARKS
CRAIG, CO      CLOUDY    60  36  40 VRB5      30.03F
GRAND JUNCTION MOSUNNY   69  38  32 SE10      29.89F
RIFLE          CLOUDY    55  42  61 W5        30.01F
MONTROSE       CLOUDY    65  36  34 SE15G24   29.98S
CORTEZ         SUNNY     65  29  25 VRB5      29.98F
PAGE, AZ       MOSUNNY   65  25  22 SE6       29.85S
GRAND CANYON   MOSUNNY   53  22  29 S13G24    29.94R
KINGMAN        MOSUNNY   58  38  47 W10       29.82R
FLAGSTAFF      MOSUNNY   48  27  44 S23G31    29.95F

$$

REGIONAL REPORTS    NEVADA/IDAHO/WYOMING

CITY           SKY/WX    TMP DP  RH WIND       PRES   REMARKS
LAS VEGAS, NV  TSTM      60  42  51 S6        29.74R
ELY            CLOUDY    50  32  50 CALM      29.85F
ELKO           PTSUNNY   57  43  59 VRB3      29.84F
POCATELLO, ID  CLOUDY    60  44  55 NE7       29.87F
BURLEY         CLOUDY    55  48  77 E7        29.86F
EVANSTON, WY   LGT RAIN  46  42  86 W13       30.03F
ROCK SPRINGS   CLOUDY    52  38  58 S3        30.04R
KEMMERER         N/A     54  37  54 NE21G26   30.01F

$$



USA.gov is the U.S. government's official web portal to all federal, state and local government web resources and services.